Location: Chippewa Lake
(41.0698°N, 81.9010°W)
Time: 04:58:49
(UTC+00:00)

SL-8 Rocket - Pass Details

Date: 30 September 2021
Orbit: 958 x 990 km, 82.9° (Epoch: 17 October)

Event Time Altitude Azimuth Distance (km) Brightness Sun altitude
Rises 02:04:53 0° 222° (SW) 3,676 7.2 -32.3°
Reaches altitude 10° 02:07:52 10° 235° (SW) 2,736 6.6 -32.8°
Maximum altitude 02:12:56 25° 289° (WNW) 1,866 6.0 -33.6°
Drops below altitude 10° 02:18:04 10° 343° (NNW) 2,759 6.8 -34.5°
Sets 02:21:07 0° 357° (N) 3,712 7.5 -35.0°
